Year,Month,Day,Hour,Minute,Value (Times are PST for temperature in C)
2020,04,15,00,00,9.30
2020,04,15,00,01,9.20
2020,04,15,00,02,9.20
2020,04,15,00,03,9.20
2020,04,15,00,04,9.20
2020,04,15,00,05,9.10
2020,04,15,00,06,9.10
2020,04,15,00,07,9.10
2020,04,15,00,08,9.10
2020,04,15,00,09,9.10
2020,04,15,00,10,9.10
2020,04,15,00,11,9.10
2020,04,15,00,12,9.10
2020,04,15,00,13,9.10
2020,04,15,00,14,9.10
2020,04,15,00,15,9.10
2020,04,15,00,16,9.10
2020,04,15,00,17,9.10
2020,04,15,00,18,9.20
2020,04,15,00,19,9.20
2020,04,15,00,20,9.20
2020,04,15,00,21,9.20
2020,04,15,00,22,9.20
2020,04,15,00,23,9.20
2020,04,15,00,24,9.10
2020,04,15,00,25,9.10
2020,04,15,00,26,9.10
2020,04,15,00,27,9.10
2020,04,15,00,28,9.10
2020,04,15,00,29,9.10
2020,04,15,00,30,9.10
2020,04,15,00,31,9.20
2020,04,15,00,32,9.20
2020,04,15,00,33,9.20
2020,04,15,00,34,9.20
2020,04,15,00,35,9.20
2020,04,15,00,36,9.20
2020,04,15,00,37,9.20
2020,04,15,00,38,9.20
2020,04,15,00,39,9.10
2020,04,15,00,40,9.10
2020,04,15,00,41,9.10
2020,04,15,00,42,9.10
2020,04,15,00,43,9.10
2020,04,15,00,44,9.10
2020,04,15,00,45,9.00
2020,04,15,00,46,9.00
2020,04,15,00,47,9.00
2020,04,15,00,48,9.00
2020,04,15,00,49,8.90
2020,04,15,00,50,8.90
2020,04,15,00,51,8.90
2020,04,15,00,52,8.90
2020,04,15,00,53,8.90
2020,04,15,00,54,8.80
2020,04,15,00,55,8.70
2020,04,15,00,56,8.70
2020,04,15,00,57,8.60
2020,04,15,00,58,8.60
2020,04,15,00,59,8.60
2020,04,15,01,00,8.60
2020,04,15,01,01,8.60
2020,04,15,01,02,8.50
2020,04,15,01,03,8.50
2020,04,15,01,04,8.50
2020,04,15,01,05,8.50
2020,04,15,01,06,8.50
2020,04,15,01,07,8.40
2020,04,15,01,08,8.40
2020,04,15,01,09,8.40
2020,04,15,01,10,8.40
2020,04,15,01,11,8.30
2020,04,15,01,12,8.30
2020,04,15,01,13,8.30
2020,04,15,01,14,8.30
2020,04,15,01,15,8.30
2020,04,15,01,16,8.30
2020,04,15,01,17,8.30
2020,04,15,01,18,8.20
2020,04,15,01,19,8.20
2020,04,15,01,20,8.20
2020,04,15,01,21,8.20
2020,04,15,01,22,8.20
2020,04,15,01,23,8.20
2020,04,15,01,24,8.20
2020,04,15,01,25,8.20
2020,04,15,01,26,8.20
2020,04,15,01,27,8.20
2020,04,15,01,28,8.30
2020,04,15,01,29,8.30
2020,04,15,01,30,8.40
2020,04,15,01,31,8.40
2020,04,15,01,32,8.40
2020,04,15,01,33,8.40
2020,04,15,01,34,8.40
2020,04,15,01,35,8.50
2020,04,15,01,36,8.50
2020,04,15,01,37,8.50
2020,04,15,01,38,8.50
2020,04,15,01,39,8.40
2020,04,15,01,40,8.40
2020,04,15,01,41,8.40
2020,04,15,01,42,8.40
2020,04,15,01,43,8.40
2020,04,15,01,44,8.40
2020,04,15,01,45,8.50
2020,04,15,01,46,8.50
2020,04,15,01,47,8.50
2020,04,15,01,48,8.60
2020,04,15,01,49,8.60
2020,04,15,01,50,8.60
2020,04,15,01,51,8.70
2020,04,15,01,52,8.70
2020,04,15,01,53,8.70
2020,04,15,01,54,8.80
2020,04,15,01,55,8.90
2020,04,15,01,56,9.00
2020,04,15,01,57,9.10
2020,04,15,01,58,9.10
2020,04,15,01,59,9.20
2020,04,15,02,00,9.30
2020,04,15,02,01,9.30
2020,04,15,02,02,9.40
2020,04,15,02,03,9.40
2020,04,15,02,04,9.50
2020,04,15,02,05,9.50
2020,04,15,02,06,9.50
2020,04,15,02,07,9.50
2020,04,15,02,08,9.60
2020,04,15,02,09,9.60
2020,04,15,02,10,9.60
2020,04,15,02,11,9.50
2020,04,15,02,12,9.50
2020,04,15,02,13,9.40
2020,04,15,02,14,9.30
2020,04,15,02,15,9.20
2020,04,15,02,16,9.10
2020,04,15,02,17,9.00
2020,04,15,02,18,8.90
2020,04,15,02,19,9.00
2020,04,15,02,20,9.00
2020,04,15,02,21,9.10
2020,04,15,02,22,9.20
2020,04,15,02,23,9.20
2020,04,15,02,24,9.20
2020,04,15,02,25,9.20
2020,04,15,02,26,9.30
2020,04,15,02,27,9.30
2020,04,15,02,28,9.40
2020,04,15,02,29,9.40
2020,04,15,02,30,9.40
2020,04,15,02,31,9.40
2020,04,15,02,32,9.40
2020,04,15,02,33,9.40
2020,04,15,02,34,9.40
2020,04,15,02,35,9.40
2020,04,15,02,36,9.40
2020,04,15,02,37,9.40
2020,04,15,02,38,9.40
2020,04,15,02,39,9.40
2020,04,15,02,40,9.40
2020,04,15,02,41,9.40
2020,04,15,02,42,9.40
2020,04,15,02,43,9.40
2020,04,15,02,44,9.40
2020,04,15,02,45,9.40
2020,04,15,02,46,9.40
2020,04,15,02,47,9.30
2020,04,15,02,48,9.30
2020,04,15,02,49,9.30
2020,04,15,02,50,9.30
2020,04,15,02,51,9.20
2020,04,15,02,52,9.20
2020,04,15,02,53,9.20
2020,04,15,02,54,9.10
2020,04,15,02,55,9.10
2020,04,15,02,56,9.10
2020,04,15,02,57,9.10
2020,04,15,02,58,9.10
2020,04,15,02,59,9.10
2020,04,15,03,00,9.10
2020,04,15,03,01,9.00
2020,04,15,03,02,9.00
2020,04,15,03,03,9.10
2020,04,15,03,04,9.10
2020,04,15,03,05,9.10
2020,04,15,03,06,9.10
2020,04,15,03,07,9.10
2020,04,15,03,08,9.10
2020,04,15,03,09,9.10
2020,04,15,03,10,9.10
2020,04,15,03,11,9.10
2020,04,15,03,12,9.10
2020,04,15,03,13,9.20
2020,04,15,03,14,9.20
2020,04,15,03,15,9.20
2020,04,15,03,16,9.20
2020,04,15,03,17,9.10
2020,04,15,03,18,9.20
2020,04,15,03,19,9.10
2020,04,15,03,20,9.20
2020,04,15,03,21,9.20
2020,04,15,03,22,9.20
2020,04,15,03,23,9.20
2020,04,15,03,24,9.20
2020,04,15,03,25,9.20
2020,04,15,03,26,9.20
2020,04,15,03,27,9.20
2020,04,15,03,28,9.20
2020,04,15,03,29,9.20
2020,04,15,03,30,9.10
2020,04,15,03,31,9.10
2020,04,15,03,32,9.00
2020,04,15,03,33,8.90
2020,04,15,03,34,8.80
2020,04,15,03,35,8.80
2020,04,15,03,36,8.70
2020,04,15,03,37,8.70
2020,04,15,03,38,8.70
2020,04,15,03,39,8.70
2020,04,15,03,40,8.70
2020,04,15,03,41,8.60
2020,04,15,03,42,8.60
2020,04,15,03,43,8.60
2020,04,15,03,44,8.60
2020,04,15,03,45,8.60
2020,04,15,03,46,8.60
2020,04,15,03,47,8.60
2020,04,15,03,48,8.60
2020,04,15,03,49,8.60
2020,04,15,03,50,8.60
2020,04,15,03,51,8.50
2020,04,15,03,52,8.50
2020,04,15,03,53,8.50
2020,04,15,03,54,8.50
2020,04,15,03,55,8.50
2020,04,15,03,56,8.50
2020,04,15,03,57,8.50
2020,04,15,03,58,8.50
2020,04,15,03,59,8.50
2020,04,15,04,00,8.60
2020,04,15,04,01,8.60
2020,04,15,04,02,8.60
2020,04,15,04,03,8.50
2020,04,15,04,04,8.50
2020,04,15,04,05,8.50
2020,04,15,04,06,8.40
2020,04,15,04,07,8.40
2020,04,15,04,08,8.30
2020,04,15,04,09,8.30
2020,04,15,04,10,8.30
2020,04,15,04,11,8.30
2020,04,15,04,12,8.30
2020,04,15,04,13,8.20
2020,04,15,04,14,8.20
2020,04,15,04,15,8.10
2020,04,15,04,16,8.10
2020,04,15,04,17,8.00
2020,04,15,04,18,8.00
2020,04,15,04,19,7.90
2020,04,15,04,20,7.90
2020,04,15,04,21,7.80
2020,04,15,04,22,7.80
2020,04,15,04,23,7.80
2020,04,15,04,24,7.80
2020,04,15,04,25,7.70
2020,04,15,04,26,7.70
2020,04,15,04,27,7.70
2020,04,15,04,28,7.70
2020,04,15,04,29,7.70
2020,04,15,04,30,7.60
2020,04,15,04,31,7.60
2020,04,15,04,32,7.60
2020,04,15,04,33,7.60
2020,04,15,04,34,7.60
2020,04,15,04,35,7.60
2020,04,15,04,36,7.60
2020,04,15,04,37,7.60
2020,04,15,04,38,7.50
2020,04,15,04,39,7.50
2020,04,15,04,40,7.50
2020,04,15,04,41,7.40
2020,04,15,04,42,7.40
2020,04,15,04,43,7.40
2020,04,15,04,44,7.40
2020,04,15,04,45,7.40
2020,04,15,04,46,7.40
2020,04,15,04,47,7.40
2020,04,15,04,48,7.40
2020,04,15,04,49,7.40
2020,04,15,04,50,7.40
2020,04,15,04,51,7.40
2020,04,15,04,52,7.40
2020,04,15,04,53,7.40
2020,04,15,04,54,7.40
2020,04,15,04,55,7.30
2020,04,15,04,56,7.30
2020,04,15,04,57,7.30
2020,04,15,04,58,7.20
2020,04,15,04,59,7.20
2020,04,15,05,00,7.20
2020,04,15,05,01,7.10
2020,04,15,05,02,7.10
2020,04,15,05,03,7.10
2020,04,15,05,04,7.00
2020,04,15,05,05,7.00
2020,04,15,05,06,7.00
2020,04,15,05,07,7.00
2020,04,15,05,08,6.90
2020,04,15,05,09,6.90
2020,04,15,05,10,6.80
2020,04,15,05,11,6.80
2020,04,15,05,12,6.80
2020,04,15,05,13,6.80
2020,04,15,05,14,6.70
2020,04,15,05,15,6.70
2020,04,15,05,16,6.70
2020,04,15,05,17,6.70
2020,04,15,05,18,6.70
2020,04,15,05,19,6.80
2020,04,15,05,20,6.80
2020,04,15,05,21,6.90
2020,04,15,05,22,6.90
2020,04,15,05,23,6.90
2020,04,15,05,24,6.90
2020,04,15,05,25,6.90
2020,04,15,05,26,6.90
2020,04,15,05,27,6.80
2020,04,15,05,28,6.80
2020,04,15,05,29,6.80
2020,04,15,05,30,6.80
2020,04,15,05,31,6.80
2020,04,15,05,32,6.80
2020,04,15,05,33,6.80
2020,04,15,05,34,6.80
2020,04,15,05,35,6.80
2020,04,15,05,36,6.80
2020,04,15,05,37,6.80
2020,04,15,05,38,6.80
2020,04,15,05,39,6.80
2020,04,15,05,40,6.80
2020,04,15,05,41,6.80
2020,04,15,05,42,6.80
2020,04,15,05,43,6.80
2020,04,15,05,44,6.80
2020,04,15,05,45,6.80
2020,04,15,05,46,6.80
2020,04,15,05,47,6.80
2020,04,15,05,48,6.80
2020,04,15,05,49,6.90
2020,04,15,05,50,6.90
2020,04,15,05,51,6.90
2020,04,15,05,52,6.90
2020,04,15,05,53,6.80
2020,04,15,05,54,6.80
2020,04,15,05,55,6.80
2020,04,15,05,56,6.70
2020,04,15,05,57,6.60
2020,04,15,05,58,6.60
2020,04,15,05,59,6.50
2020,04,15,06,00,6.50
2020,04,15,06,01,6.40
2020,04,15,06,02,6.40
2020,04,15,06,03,6.40
2020,04,15,06,04,6.40
2020,04,15,06,05,6.40
2020,04,15,06,06,6.30
2020,04,15,06,07,6.30
2020,04,15,06,08,6.30
2020,04,15,06,09,6.30
2020,04,15,06,10,6.30
2020,04,15,06,11,6.20
2020,04,15,06,12,6.20
2020,04,15,06,13,6.20
2020,04,15,06,14,6.20
2020,04,15,06,15,6.20
2020,04,15,06,16,6.20
2020,04,15,06,17,6.20
2020,04,15,06,18,6.20
2020,04,15,06,19,6.20
2020,04,15,06,20,6.20
2020,04,15,06,21,6.30
2020,04,15,06,22,6.30
2020,04,15,06,23,6.40
2020,04,15,06,24,6.40
2020,04,15,06,25,6.40
2020,04,15,06,26,6.40
2020,04,15,06,27,6.50
2020,04,15,06,28,6.50
2020,04,15,06,29,6.50
2020,04,15,06,30,6.50
2020,04,15,06,31,6.50
2020,04,15,06,32,6.50
2020,04,15,06,33,6.50
2020,04,15,06,34,6.50
2020,04,15,06,35,6.50
2020,04,15,06,36,6.50
2020,04,15,06,37,6.50
2020,04,15,06,38,6.50
2020,04,15,06,39,6.40
2020,04,15,06,40,6.50
2020,04,15,06,41,6.50
2020,04,15,06,42,6.50
2020,04,15,06,43,6.50
2020,04,15,06,44,6.60
2020,04,15,06,45,6.60
2020,04,15,06,46,6.70
2020,04,15,06,47,6.70
2020,04,15,06,48,6.80
2020,04,15,06,49,6.90
2020,04,15,06,50,7.10
2020,04,15,06,51,7.20
2020,04,15,06,52,7.30
2020,04,15,06,53,7.40
2020,04,15,06,54,7.40
2020,04,15,06,55,7.50
2020,04,15,06,56,7.60
2020,04,15,06,57,7.70
2020,04,15,06,58,7.70
2020,04,15,06,59,7.80
2020,04,15,07,00,7.90
2020,04,15,07,01,7.90
2020,04,15,07,02,8.00
2020,04,15,07,03,8.10
2020,04,15,07,04,8.20
2020,04,15,07,05,8.20
2020,04,15,07,06,8.20
2020,04,15,07,07,8.20
2020,04,15,07,08,8.30
2020,04,15,07,09,8.30
2020,04,15,07,10,8.30
2020,04,15,07,11,8.30
2020,04,15,07,12,8.30
2020,04,15,07,13,8.30
2020,04,15,07,14,8.30
2020,04,15,07,15,8.30
2020,04,15,07,16,8.30
2020,04,15,07,17,8.30
2020,04,15,07,18,8.30
2020,04,15,07,19,8.30
2020,04,15,07,20,8.30
2020,04,15,07,21,8.40
2020,04,15,07,22,8.40
2020,04,15,07,23,8.50
2020,04,15,07,24,8.50
2020,04,15,07,25,8.60
2020,04,15,07,26,8.60
2020,04,15,07,27,8.70
2020,04,15,07,28,8.70
2020,04,15,07,29,8.80
2020,04,15,07,30,8.80
2020,04,15,07,31,8.80
2020,04,15,07,32,8.90
2020,04,15,07,33,8.90
2020,04,15,07,34,8.90
2020,04,15,07,35,9.00
2020,04,15,07,36,9.00
2020,04,15,07,37,9.10
2020,04,15,07,38,9.10
2020,04,15,07,39,9.20
2020,04,15,07,40,9.30
2020,04,15,07,41,9.30
2020,04,15,07,42,9.40
2020,04,15,07,43,9.50
2020,04,15,07,44,9.60
2020,04,15,07,45,9.60
2020,04,15,07,46,9.70
2020,04,15,07,47,9.80
2020,04,15,07,48,9.90
2020,04,15,07,49,9.90
2020,04,15,07,50,10.00
2020,04,15,07,51,10.10
2020,04,15,07,52,10.10
2020,04,15,07,53,10.20
2020,04,15,07,54,10.20
2020,04,15,07,55,10.30
2020,04,15,07,56,10.30
2020,04,15,07,57,10.30
2020,04,15,07,58,10.30
2020,04,15,07,59,10.30
2020,04,15,08,00,10.30
2020,04,15,08,01,10.30
2020,04,15,08,02,10.30
2020,04,15,08,03,10.20
2020,04,15,08,04,10.20
2020,04,15,08,05,10.20
2020,04,15,08,06,10.20
2020,04,15,08,07,10.20
2020,04,15,08,08,10.20
2020,04,15,08,09,10.20
2020,04,15,08,10,10.20
2020,04,15,08,11,10.20
2020,04,15,08,12,10.30
2020,04,15,08,13,10.30
2020,04,15,08,14,10.30
2020,04,15,08,15,10.30
2020,04,15,08,16,10.30
2020,04,15,08,17,10.30
2020,04,15,08,18,10.30
2020,04,15,08,19,10.30
2020,04,15,08,20,10.30
2020,04,15,08,21,10.30
2020,04,15,08,22,10.30
2020,04,15,08,23,10.40
2020,04,15,08,24,10.40
2020,04,15,08,25,10.40
2020,04,15,08,26,10.40
2020,04,15,08,27,10.50
2020,04,15,08,28,10.50
2020,04,15,08,29,10.60
2020,04,15,08,30,10.60
2020,04,15,08,31,10.60
2020,04,15,08,32,10.50
2020,04,15,08,33,10.50
2020,04,15,08,34,10.40
2020,04,15,08,35,10.40
2020,04,15,08,36,10.30
2020,04,15,08,37,10.30
2020,04,15,08,38,10.30
2020,04,15,08,39,10.40
2020,04,15,08,40,10.40
2020,04,15,08,41,10.40
2020,04,15,08,42,10.50
2020,04,15,08,43,10.50
2020,04,15,08,44,10.50
2020,04,15,08,45,10.60
2020,04,15,08,46,10.60
2020,04,15,08,47,10.70
2020,04,15,08,48,10.80
2020,04,15,08,49,10.80
2020,04,15,08,50,10.90
2020,04,15,08,51,11.00
2020,04,15,08,52,11.10
2020,04,15,08,53,11.10
2020,04,15,08,54,11.10
2020,04,15,08,55,11.10
2020,04,15,08,56,11.10
2020,04,15,08,57,11.10
2020,04,15,08,58,11.10
2020,04,15,08,59,11.10
2020,04,15,09,00,11.20
2020,04,15,09,01,11.20
2020,04,15,09,02,11.30
2020,04,15,09,03,11.30
2020,04,15,09,04,11.40
2020,04,15,09,05,11.40
2020,04,15,09,06,11.50
2020,04,15,09,07,11.60
2020,04,15,09,08,11.60
2020,04,15,09,09,11.60
2020,04,15,09,10,11.60
2020,04,15,09,11,11.60
2020,04,15,09,12,11.60
2020,04,15,09,13,11.60
2020,04,15,09,14,11.60
2020,04,15,09,15,11.60
2020,04,15,09,16,11.50
2020,04,15,09,17,11.50
2020,04,15,09,18,11.50
2020,04,15,09,19,11.40
2020,04,15,09,20,11.50
2020,04,15,09,21,11.50
2020,04,15,09,22,11.50
2020,04,15,09,23,11.50
2020,04,15,09,24,11.50
2020,04,15,09,25,11.60
2020,04,15,09,26,11.60
2020,04,15,09,27,11.60
2020,04,15,09,28,11.60
2020,04,15,09,29,11.70
2020,04,15,09,30,11.70
2020,04,15,09,31,11.80
2020,04,15,09,32,11.80
2020,04,15,09,33,11.90
2020,04,15,09,34,11.90
2020,04,15,09,35,12.00
2020,04,15,09,36,12.10
2020,04,15,09,37,12.20
2020,04,15,09,38,12.20
2020,04,15,09,39,12.20
2020,04,15,09,40,12.20
2020,04,15,09,41,12.10
2020,04,15,09,42,12.00
2020,04,15,09,43,11.90
2020,04,15,09,44,11.80
2020,04,15,09,45,11.70
2020,04,15,09,46,11.70
2020,04,15,09,47,11.70
2020,04,15,09,48,11.60
2020,04,15,09,49,11.50
2020,04,15,09,50,11.50
2020,04,15,09,51,11.50
2020,04,15,09,52,11.50
2020,04,15,09,53,11.50
2020,04,15,09,54,11.60
2020,04,15,09,55,11.60
2020,04,15,09,56,11.60
2020,04,15,09,57,11.70
2020,04,15,09,58,11.70
2020,04,15,09,59,11.80
2020,04,15,10,00,11.80
2020,04,15,10,01,11.90
2020,04,15,10,02,11.90
2020,04,15,10,03,11.90
2020,04,15,10,04,12.00
2020,04,15,10,05,12.00
2020,04,15,10,06,12.10
2020,04,15,10,07,12.20
2020,04,15,10,08,12.20
2020,04,15,10,09,12.30
2020,04,15,10,10,12.40
2020,04,15,10,11,12.50
2020,04,15,10,12,12.50
2020,04,15,10,13,12.60
2020,04,15,10,14,12.70
2020,04,15,10,15,12.70
2020,04,15,10,16,12.70
2020,04,15,10,17,12.80
2020,04,15,10,18,12.80
2020,04,15,10,19,12.90
2020,04,15,10,20,13.00
2020,04,15,10,21,13.10
2020,04,15,10,22,13.20
2020,04,15,10,23,13.30
2020,04,15,10,24,13.40
2020,04,15,10,25,13.50
2020,04,15,10,26,13.60
2020,04,15,10,27,13.60
2020,04,15,10,28,13.60
2020,04,15,10,29,13.70
2020,04,15,10,30,13.70
2020,04,15,10,31,13.80
2020,04,15,10,32,13.90
2020,04,15,10,33,14.00
2020,04,15,10,34,14.10
2020,04,15,10,35,14.20
2020,04,15,10,36,14.20
2020,04,15,10,37,14.20
2020,04,15,10,38,14.20
2020,04,15,10,39,14.20
2020,04,15,10,40,14.20
2020,04,15,10,41,14.20
2020,04,15,10,42,14.20
2020,04,15,10,43,14.30
2020,04,15,10,44,14.30
2020,04,15,10,45,14.30
2020,04,15,10,46,14.30
2020,04,15,10,47,14.20
2020,04,15,10,48,14.20
2020,04,15,10,49,14.20
2020,04,15,10,50,14.10
2020,04,15,10,51,14.10
2020,04,15,10,52,14.00
2020,04,15,10,53,14.00
2020,04,15,10,54,14.00
2020,04,15,10,55,14.00
2020,04,15,10,56,14.10
2020,04,15,10,57,14.10
2020,04,15,10,58,14.10
2020,04,15,10,59,14.00
2020,04,15,11,00,14.00
2020,04,15,11,01,14.10
2020,04,15,11,02,14.10
2020,04,15,11,03,14.10
2020,04,15,11,04,14.10
2020,04,15,11,05,14.10
2020,04,15,11,06,14.10
2020,04,15,11,07,14.10
2020,04,15,11,08,14.10
2020,04,15,11,09,14.10
2020,04,15,11,10,14.10
2020,04,15,11,11,14.10
2020,04,15,11,12,14.00
2020,04,15,11,13,14.00
2020,04,15,11,14,14.00
2020,04,15,11,15,14.10
2020,04,15,11,16,14.10
2020,04,15,11,17,14.10
2020,04,15,11,18,14.10
2020,04,15,11,19,14.10
2020,04,15,11,20,14.20
2020,04,15,11,21,14.20
2020,04,15,11,22,14.30
2020,04,15,11,23,14.30
2020,04,15,11,24,14.30
2020,04,15,11,25,14.30
2020,04,15,11,26,14.40
2020,04,15,11,27,14.30
2020,04,15,11,28,14.30
2020,04,15,11,29,14.30
2020,04,15,11,30,14.30
2020,04,15,11,31,14.30
2020,04,15,11,32,14.30
2020,04,15,11,33,14.30
2020,04,15,11,34,14.30
2020,04,15,11,35,14.30
2020,04,15,11,36,14.30
2020,04,15,11,37,14.30
2020,04,15,11,38,14.30
2020,04,15,11,39,14.40
2020,04,15,11,40,14.40
2020,04,15,11,41,14.50
2020,04,15,11,42,14.60
2020,04,15,11,43,14.60
2020,04,15,11,44,14.60
2020,04,15,11,45,14.60
2020,04,15,11,46,14.60
2020,04,15,11,47,14.60
2020,04,15,11,48,14.60
2020,04,15,11,49,14.60
2020,04,15,11,50,14.60
2020,04,15,11,51,14.60
2020,04,15,11,52,14.60
2020,04,15,11,53,14.60
2020,04,15,11,54,14.60
2020,04,15,11,55,14.60
2020,04,15,11,56,14.70
2020,04,15,11,57,14.70
2020,04,15,11,58,14.60
2020,04,15,11,59,14.60
2020,04,15,12,00,14.60
2020,04,15,12,01,14.60
2020,04,15,12,02,14.60
2020,04,15,12,03,14.70
2020,04,15,12,04,14.70
2020,04,15,12,05,14.70
2020,04,15,12,06,14.70
2020,04,15,12,07,14.80
2020,04,15,12,08,14.80
2020,04,15,12,09,14.80
2020,04,15,12,10,14.90
2020,04,15,12,11,14.90
2020,04,15,12,12,15.10
2020,04,15,12,13,15.20
2020,04,15,12,14,15.20
2020,04,15,12,15,15.30
2020,04,15,12,16,15.20
2020,04,15,12,17,15.10
2020,04,15,12,18,15.10
2020,04,15,12,19,15.10
2020,04,15,12,20,15.20
2020,04,15,12,21,15.20
2020,04,15,12,22,15.30
2020,04,15,12,23,15.20
2020,04,15,12,24,15.10
2020,04,15,12,25,15.10
2020,04,15,12,26,15.10
2020,04,15,12,27,15.10
2020,04,15,12,28,15.10
2020,04,15,12,29,15.10
2020,04,15,12,30,15.20
2020,04,15,12,31,15.30
2020,04,15,12,32,15.30
2020,04,15,12,33,15.40
2020,04,15,12,34,15.50
2020,04,15,12,35,15.60
2020,04,15,12,36,15.50
2020,04,15,12,37,15.40
2020,04,15,12,38,15.40
2020,04,15,12,39,15.40
2020,04,15,12,40,15.50
2020,04,15,12,41,15.50
2020,04,15,12,42,15.60
2020,04,15,12,43,15.60
2020,04,15,12,44,15.60
2020,04,15,12,45,15.50
2020,04,15,12,46,15.50
2020,04,15,12,47,15.50
2020,04,15,12,48,15.50
2020,04,15,12,49,15.50
2020,04,15,12,50,15.50
2020,04,15,12,51,15.60
2020,04,15,12,52,15.60
2020,04,15,12,53,15.60
2020,04,15,12,54,15.60
2020,04,15,12,55,15.60
2020,04,15,12,56,15.60
2020,04,15,12,57,15.60
2020,04,15,12,58,15.60
2020,04,15,12,59,15.60
2020,04,15,13,00,15.60
2020,04,15,13,01,15.50
2020,04,15,13,02,15.50
2020,04,15,13,03,15.50
2020,04,15,13,04,15.50
2020,04,15,13,05,15.60
2020,04,15,13,06,15.60
2020,04,15,13,07,15.60
2020,04,15,13,08,15.60
2020,04,15,13,09,15.60
2020,04,15,13,10,15.50
2020,04,15,13,11,15.50
2020,04,15,13,12,15.50
2020,04,15,13,13,15.40
2020,04,15,13,14,15.50
2020,04,15,13,15,15.50
2020,04,15,13,16,15.60
2020,04,15,13,17,15.60
2020,04,15,13,18,15.60
2020,04,15,13,19,15.70
2020,04,15,13,20,15.60
2020,04,15,13,21,15.60
2020,04,15,13,22,15.60
2020,04,15,13,23,15.70
2020,04,15,13,24,15.70
2020,04,15,13,25,15.70
2020,04,15,13,26,15.70
2020,04,15,13,27,15.70
2020,04,15,13,28,15.70
2020,04,15,13,29,15.60
2020,04,15,13,30,15.60
2020,04,15,13,31,15.70
2020,04,15,13,32,15.60
2020,04,15,13,33,15.60
2020,04,15,13,34,15.60
2020,04,15,13,35,15.50
2020,04,15,13,36,15.60
2020,04,15,13,37,15.60
2020,04,15,13,38,15.60
2020,04,15,13,39,15.70
2020,04,15,13,40,15.70
2020,04,15,13,41,15.70
2020,04,15,13,42,15.70
2020,04,15,13,43,15.70
2020,04,15,13,44,15.70
2020,04,15,13,45,15.80
2020,04,15,13,46,15.90
2020,04,15,13,47,15.90
2020,04,15,13,48,16.00
2020,04,15,13,49,16.00
2020,04,15,13,50,15.90
2020,04,15,13,51,15.90
2020,04,15,13,52,15.80
2020,04,15,13,53,15.70
2020,04,15,13,54,15.70
2020,04,15,13,55,15.60
2020,04,15,13,56,15.60
2020,04,15,13,57,15.60
2020,04,15,13,58,15.50
2020,04,15,13,59,15.50
2020,04,15,14,00,15.60
2020,04,15,14,01,15.60
2020,04,15,14,02,15.60
2020,04,15,14,03,15.60
2020,04,15,14,04,15.60
2020,04,15,14,05,15.50
2020,04,15,14,06,15.60
2020,04,15,14,07,15.60
2020,04,15,14,08,15.60
2020,04,15,14,09,15.60
2020,04,15,14,10,15.70
2020,04,15,14,11,15.60
2020,04,15,14,12,15.60
2020,04,15,14,13,15.70
2020,04,15,14,14,15.70
2020,04,15,14,15,15.80
2020,04,15,14,16,15.80
2020,04,15,14,17,15.70
2020,04,15,14,18,15.70
2020,04,15,14,19,15.70
2020,04,15,14,20,15.70
2020,04,15,14,21,15.70
2020,04,15,14,22,15.70
2020,04,15,14,23,15.70
2020,04,15,14,24,15.80
2020,04,15,14,25,15.80
2020,04,15,14,26,15.80
2020,04,15,14,27,15.80
2020,04,15,14,28,15.80
2020,04,15,14,29,15.90
2020,04,15,14,30,15.90
2020,04,15,14,31,16.00
2020,04,15,14,32,16.00
2020,04,15,14,33,16.00
2020,04,15,14,34,16.10
2020,04,15,14,35,16.20
2020,04,15,14,36,16.20
2020,04,15,14,37,16.20
2020,04,15,14,38,16.20
2020,04,15,14,39,16.20
2020,04,15,14,40,16.20
2020,04,15,14,41,16.20
2020,04,15,14,42,16.20
2020,04,15,14,43,16.30
2020,04,15,14,44,16.40
2020,04,15,14,45,16.40
2020,04,15,14,46,16.40
2020,04,15,14,47,16.40
2020,04,15,14,48,16.50
2020,04,15,14,49,16.50
2020,04,15,14,50,16.60
2020,04,15,14,51,16.60
2020,04,15,14,52,16.70
2020,04,15,14,53,16.70
2020,04,15,14,54,16.70
2020,04,15,14,55,16.70
2020,04,15,14,56,16.70
2020,04,15,14,57,16.70
2020,04,15,14,58,16.60
2020,04,15,14,59,16.60
2020,04,15,15,00,16.60
2020,04,15,15,01,16.60
2020,04,15,15,02,16.60
2020,04,15,15,03,16.70
2020,04,15,15,04,16.70
2020,04,15,15,05,16.70
2020,04,15,15,06,16.70
2020,04,15,15,07,16.70
2020,04,15,15,08,16.70
2020,04,15,15,09,16.80
2020,04,15,15,10,16.80
2020,04,15,15,11,16.80
2020,04,15,15,12,16.70
2020,04,15,15,13,16.60
2020,04,15,15,14,16.60
2020,04,15,15,15,16.50
2020,04,15,15,16,16.50
2020,04,15,15,17,16.40
2020,04,15,15,18,16.40
2020,04,15,15,19,16.50
2020,04,15,15,20,16.60
2020,04,15,15,21,16.60
2020,04,15,15,22,16.60
2020,04,15,15,23,16.60
2020,04,15,15,24,16.50
2020,04,15,15,25,16.50
2020,04,15,15,26,16.50
2020,04,15,15,27,16.50
2020,04,15,15,28,16.50
2020,04,15,15,29,16.60
2020,04,15,15,30,16.60
2020,04,15,15,31,16.60
2020,04,15,15,32,16.60
2020,04,15,15,33,16.60
2020,04,15,15,34,16.60
2020,04,15,15,35,16.70
2020,04,15,15,36,16.70
2020,04,15,15,37,16.80
2020,04,15,15,38,16.80
2020,04,15,15,39,16.70
2020,04,15,15,40,16.70
2020,04,15,15,41,16.60
2020,04,15,15,42,16.60
2020,04,15,15,43,16.50
2020,04,15,15,44,16.50
2020,04,15,15,45,16.50
2020,04,15,15,46,16.40
2020,04,15,15,47,16.40
2020,04,15,15,48,16.40
2020,04,15,15,49,16.40
2020,04,15,15,50,16.40
2020,04,15,15,51,16.40
2020,04,15,15,52,16.30
2020,04,15,15,53,16.30
2020,04,15,15,54,16.30
2020,04,15,15,55,16.30
2020,04,15,15,56,16.30
2020,04,15,15,57,16.30
2020,04,15,15,58,16.30
2020,04,15,15,59,16.30
2020,04,15,16,00,16.30
2020,04,15,16,01,16.30
2020,04,15,16,02,16.30
2020,04,15,16,03,16.50
2020,04,15,16,04,16.50
2020,04,15,16,05,16.60
2020,04,15,16,06,16.70
2020,04,15,16,07,16.70
2020,04,15,16,08,16.70
2020,04,15,16,09,16.80
2020,04,15,16,10,16.80
2020,04,15,16,11,16.80
2020,04,15,16,12,16.80
2020,04,15,16,13,16.80
2020,04,15,16,14,16.80
2020,04,15,16,15,16.80
2020,04,15,16,16,16.90
2020,04,15,16,17,16.90
2020,04,15,16,18,16.90
2020,04,15,16,19,17.00
2020,04,15,16,20,17.00
2020,04,15,16,21,17.10
2020,04,15,16,22,17.20
2020,04,15,16,23,17.30
2020,04,15,16,24,17.40
2020,04,15,16,25,17.40
2020,04,15,16,26,17.50
2020,04,15,16,27,17.60
2020,04,15,16,28,17.60
2020,04,15,16,29,17.70
2020,04,15,16,30,17.70
2020,04,15,16,31,17.70
2020,04,15,16,32,17.70
2020,04,15,16,33,17.70
2020,04,15,16,34,17.70
2020,04,15,16,35,17.70
2020,04,15,16,36,17.70
2020,04,15,16,37,17.70
2020,04,15,16,38,17.70
2020,04,15,16,39,17.70
2020,04,15,16,40,17.70
2020,04,15,16,41,17.70
2020,04,15,16,42,17.70
2020,04,15,16,43,17.70
2020,04,15,16,44,17.80
2020,04,15,16,45,17.80
2020,04,15,16,46,17.80
2020,04,15,16,47,17.80
2020,04,15,16,48,17.80
2020,04,15,16,49,17.80
2020,04,15,16,50,17.80
2020,04,15,16,51,17.80
2020,04,15,16,52,17.80
2020,04,15,16,53,17.80
2020,04,15,16,54,17.80
2020,04,15,16,55,17.80
2020,04,15,16,56,17.80
2020,04,15,16,57,17.80
2020,04,15,16,58,17.80
2020,04,15,16,59,17.80
2020,04,15,17,00,17.90
2020,04,15,17,01,17.90
2020,04,15,17,02,18.00
2020,04,15,17,03,18.00
2020,04,15,17,04,18.00
2020,04,15,17,05,18.10
2020,04,15,17,06,18.10
2020,04,15,17,07,18.20
2020,04,15,17,08,18.20
2020,04,15,17,09,18.20
2020,04,15,17,10,18.20
2020,04,15,17,11,18.20
2020,04,15,17,12,18.20
2020,04,15,17,13,18.20
2020,04,15,17,14,18.20
2020,04,15,17,15,18.20
2020,04,15,17,16,18.20
2020,04,15,17,17,18.30
2020,04,15,17,18,18.30
2020,04,15,17,19,18.40
2020,04,15,17,20,18.40
2020,04,15,17,21,18.40
2020,04,15,17,22,18.40
2020,04,15,17,23,18.50
2020,04,15,17,24,18.50
2020,04,15,17,25,18.50
2020,04,15,17,26,18.50
2020,04,15,17,27,18.50
2020,04,15,17,28,18.40
2020,04,15,17,29,18.30
2020,04,15,17,30,18.30
2020,04,15,17,31,18.30
2020,04,15,17,32,18.20
2020,04,15,17,33,18.20
2020,04,15,17,34,18.20
2020,04,15,17,35,18.10
2020,04,15,17,36,18.10
2020,04,15,17,37,18.10
2020,04,15,17,38,18.10
2020,04,15,17,39,18.10